This is the latest recevied weather packets stored in our database for station/object WW3TRG. If no packets are shown the sender has not sent any weather packets the latest 10 day(s).
| Time | Temp. | Humidity | Pressure | Rain* | Wind** | Luminosity | Snow |
|---|---|---|---|---|---|---|---|
| 1777523692 | 8.33° C | 99% | 1008.2 hPa | 0 mm | - | 0 W/m² | - |
| 1777523388 | 8.33° C | 99% | 1008.3 hPa | 0 mm | - | 0 W/m² | - |
| 1777523085 | 8.33° C | 99% | 1008.2 hPa | 0 mm | - | 0 W/m² | - |
| 1777522780 | 8.33° C | 99% | 1008.3 hPa | 0 mm | - | 0 W/m² | - |
| 1777522477 | 8.33° C | 99% | 1008.2 hPa | 0 mm | - | 0 W/m² | - |
| 1777522176 | 8.33° C | 99% | 1008.5 hPa | 0 mm | - | 0 W/m² | - |
| 1777521872 | 8.33° C | 99% | 1008.3 hPa | 0 mm | - | 0 W/m² | - |
| 1777521568 | 8.33° C | 99% | 1008.6 hPa | 0 mm | - | 0 W/m² | - |
| 1777521266 | 8.33° C | 99% | 1008.2 hPa | 0 mm | - | 0 W/m² | - |
| 1777520956 | 8.33° C | 99% | 1008.5 hPa | 0 mm | - | 0 W/m² | - |
| 1777520654 | 8.33° C | 99% | 1008.6 hPa | 0 mm | - | 0 W/m² | - |
| 1777520350 | 8.33° C | 99% | 1008.3 hPa | 0 mm | - | 0 W/m² | - |
| 1777520048 | 8.33° C | 99% | 1008.5 hPa | 0 mm | - | 0 W/m² | - |
| 1777519745 | 8.33° C | 99% | 1008.4 hPa | 0 mm | - | 0 W/m² | - |
| 1777519442 | 8.33° C | 99% | 1008.4 hPa | 2.29 mm | - | 0 W/m² | - |
| 1777519139 | 8.33° C | 99% | 1008.5 hPa | 4.32 mm | - | 0 W/m² | - |
| 1777518834 | 8.33° C | 99% | 1008.4 hPa | 3.56 mm | - | 0 W/m² | - |
| 1777518530 | 8.33° C | 99% | 1008.7 hPa | 6.1 mm | - | 0 W/m² | - |
| 1777518226 | 8.89° C | 99% | 1008.9 hPa | 7.11 mm | - | 0 W/m² | - |
| 1777517923 | 8.89° C | 99% | 1008.4 hPa | 10.16 mm | - | 0 W/m² | - |
| 1777517619 | 8.89° C | 99% | 1009 hPa | 8.38 mm | - | 0 W/m² | - |
| 1777517316 | 8.89° C | 99% | 1009.2 hPa | 1.78 mm | - | 0 W/m² | - |
| 1777517015 | 8.89° C | 99% | 1008.8 hPa | 1.27 mm | - | 0 W/m² | - |
| 1777516712 | 8.89° C | 99% | 1008.9 hPa | 4.83 mm | - | 0 W/m² | - |
| 1777516408 | 8.89° C | 99% | 1008.7 hPa | 4.83 mm | - | 0 W/m² | - |
* Rain latest hour (hover to see other rain measurements)
** Current wind speed in m/s (hover to see current wind gust speed)